Stations météo

réclame
Mon MeteoGroup
Threave, Grande-Bretagne (99090): Température de l'air & dewpoint: 11.12.2018 05:00:00 - 17.12.2018 05:00:00 (GMT)Threave, Grande-Bretagne (99090): Température de l'air -20cm & Température de l'air -100cm: 11.12.2018 05:00:00 - 17.12.2018 05:00:00 (GMT)Threave, Grande-Bretagne (99090): Quantités de précipitations: 11.12.2018 05:00:00 - 17.12.2018 05:00:00 (GMT)
Date & Time tt [°C] td [°C] tt -20cm [°C] tt -100cm [°C] rr [mm]
17.12.2018 05:00:00 0,5 0,2 - - 0,0
17.12.2018 04:00:00 0,6 0,1 - - 0,0
17.12.2018 03:00:00 2,6 2,4 - - 0,0
17.12.2018 02:00:00 3,4 3,1 - - 0,0
17.12.2018 01:00:00 3,1 2,7 - - 0,0
17.12.2018 00:00:00 4,1 3,6 - - 0,0
16.12.2018 23:00:00 4,5 4,0 - - 0,0
16.12.2018 22:00:00 4,6 3,9 - - 0,6
16.12.2018 21:00:00 5,1 4,4 - - 1,4
16.12.2018 20:00:00 5,6 4,6 - - 2,2
16.12.2018 19:00:00 5,7 5,0 - - 1,0
16.12.2018 18:00:00 6,0 5,0 - - 1,0
16.12.2018 17:00:00 5,9 4,9 - - 0,8
16.12.2018 16:00:00 6,3 4,0 - - 0,2
16.12.2018 15:00:00 6,8 4,5 - - 0,0
16.12.2018 14:00:00 7,3 5,4 - - 0,0
16.12.2018 13:00:00 7,4 4,2 - - 0,0
16.12.2018 12:00:00 7,6 6,1 - - 1,2
16.12.2018 11:00:00 5,2 4,2 - - 0,0
16.12.2018 10:00:00 5,3 4,3 - - 0,0
16.12.2018 09:00:00 4,8 3,9 5,2 6,4 0,0
16.12.2018 08:00:00 3,5 2,1 - - 0,0
16.12.2018 07:00:00 4,6 2,9 - - 0,0
16.12.2018 06:00:00 5,1 3,2 - - 0,0
16.12.2018 05:00:00 5,6 3,4 - - 0,0
16.12.2018 04:00:00 5,8 3,6 - - 0,0
16.12.2018 03:00:00 6,1 4,1 - - 0,0
16.12.2018 02:00:00 6,3 4,6 - - 0,2
16.12.2018 01:00:00 5,2 4,2 - - 0,4
16.12.2018 00:00:00 3,1 2,6 - - 0,4
15.12.2018 23:00:00 3,1 2,6 - - 1,6
15.12.2018 22:00:00 3,9 3,1 - - 3,2
15.12.2018 21:00:00 3,0 2,6 - - 1,4
15.12.2018 20:00:00 2,6 2,0 - - 0,2
15.12.2018 19:00:00 2,5 1,9 - - 8,2
15.12.2018 18:00:00 2,6 2,3 - - 4,8
15.12.2018 17:00:00 2,5 2,1 - - 5,0
15.12.2018 16:00:00 2,4 1,9 - - 4,8
15.12.2018 15:00:00 2,1 1,6 - - 9,0
15.12.2018 14:00:00 1,7 1,0 - - 5,2
15.12.2018 13:00:00 2,4 0,9 - - 2,0
15.12.2018 12:00:00 2,4 0,0 - - 0,8
15.12.2018 11:00:00 2,7 -0,8 - - 0,0
15.12.2018 10:00:00 2,5 -1,2 - - 0,0
15.12.2018 09:00:00 1,5 -0,5 5,4 8,0 0,2
15.12.2018 08:00:00 1,7 -0,8 - - 0,0
15.12.2018 07:00:00 1,8 -1,2 - - 0,0
15.12.2018 06:00:00 2,1 -0,6 - - 0,0
15.12.2018 05:00:00 3,1 -2,2 - - 0,0
15.12.2018 04:00:00 3,2 -2,9 - - 0,0
15.12.2018 03:00:00 3,0 -3,1 - - 0,0
15.12.2018 02:00:00 3,2 -2,9 - - 0,0
15.12.2018 01:00:00 3,7 -2,8 - - 0,0
15.12.2018 00:00:00 3,8 -2,6 - - 0,0
14.12.2018 23:00:00 3,4 -2,4 - - 0,0
14.12.2018 22:00:00 3,5 -2,6 - - 0,0
14.12.2018 21:00:00 3,4 -2,5 - - 0,0
14.12.2018 20:00:00 3,5 -2,7 - - 0,0
14.12.2018 19:00:00 3,2 -2,8 - - 0,0
14.12.2018 18:00:00 3,0 -2,4 - - 0,0
14.12.2018 17:00:00 3,0 -2,0 - - 0,0
14.12.2018 16:00:00 2,6 -2,2 - - 0,0
14.12.2018 15:00:00 2,8 -2,3 - - 0,0
14.12.2018 14:00:00 3,2 -1,9 - - 0,0
14.12.2018 13:00:00 3,6 -1,3 - - 0,0
14.12.2018 12:00:00 3,8 -1,1 - - 0,0
14.12.2018 11:00:00 3,3 -1,4 - - 0,0
14.12.2018 10:00:00 2,6 -2,5 - - 0,0
14.12.2018 09:00:00 1,9 -2,5 5,9 8,0 0,0
14.12.2018 08:00:00 1,7 -2,5 - - 0,0
14.12.2018 07:00:00 2,3 -2,6 - - 0,0
14.12.2018 06:00:00 2,5 -2,4 - - 0,0
14.12.2018 05:00:00 2,4 -2,3 - - 0,0
14.12.2018 04:00:00 2,1 -1,8 - - 0,0
14.12.2018 03:00:00 2,4 -1,9 - - 0,0
14.12.2018 02:00:00 2,6 -1,7 - - 0,0
14.12.2018 01:00:00 1,1 -1,6 - - 0,0
14.12.2018 00:00:00 0,6 -1,8 - - 0,0
13.12.2018 23:00:00 0,6 -1,9 - - 0,0
13.12.2018 22:00:00 2,3 -0,5 - - 0,0
13.12.2018 21:00:00 -0,1 -1,9 - - 0,0
13.12.2018 20:00:00 1,4 -1,3 - - 0,0
13.12.2018 19:00:00 3,0 -0,7 - - 0,0
13.12.2018 18:00:00 3,1 -0,8 - - 0,0
13.12.2018 17:00:00 3,5 -0,6 - - 0,0
13.12.2018 16:00:00 4,0 -0,8 - - 0,0
13.12.2018 15:00:00 4,5 -0,7 - - 0,0
13.12.2018 14:00:00 4,7 -1,0 - - 0,0
13.12.2018 13:00:00 5,3 -1,5 - - 0,0
13.12.2018 12:00:00 4,5 -1,1 - - 0,0
13.12.2018 11:00:00 4,1 -1,5 - - 0,0
13.12.2018 10:00:00 3,8 -1,3 - - 0,0
13.12.2018 09:00:00 3,8 -1,2 6,5 8,0 0,0
13.12.2018 08:00:00 3,6 -1,1 - - 0,0
13.12.2018 07:00:00 3,8 -1,3 - - 0,0
13.12.2018 06:00:00 4,1 -1,2 - - 0,0
13.12.2018 05:00:00 3,9 -1,9 - - 0,0
13.12.2018 04:00:00 4,2 -2,2 - - 0,0
13.12.2018 03:00:00 3,6 -1,7 - - 0,0
13.12.2018 02:00:00 4,3 -2,3 - - 0,0
13.12.2018 01:00:00 5,0 -3,3 - - 0,0
13.12.2018 00:00:00 4,7 -2,0 - - 0,0
12.12.2018 23:00:00 4,9 -1,6 - - 0,0
12.12.2018 22:00:00 4,9 1,1 - - 0,0
12.12.2018 21:00:00 5,0 1,4 - - 0,0
12.12.2018 20:00:00 6,5 2,6 - - 0,0
12.12.2018 19:00:00 6,8 2,8 - - 0,0
12.12.2018 18:00:00 7,2 2,6 - - 0,0
12.12.2018 17:00:00 7,3 2,9 - - 0,0
12.12.2018 16:00:00 7,6 3,2 - - 0,0
12.12.2018 15:00:00 - - - - -
12.12.2018 14:00:00 - - - - -
12.12.2018 13:00:00 - - - - -
12.12.2018 12:00:00 7,7 4,6 - - 0,0
12.12.2018 11:00:00 7,6 4,6 - - 0,0
12.12.2018 10:00:00 7,3 4,6 - - 0,0
12.12.2018 09:00:00 7,2 4,9 6,5 8,0 0,0
12.12.2018 08:00:00 7,4 4,6 - - 0,0
12.12.2018 07:00:00 7,6 4,6 - - 0,0
12.12.2018 06:00:00 7,7 5,0 - - 0,0
12.12.2018 05:00:00 7,8 5,2 - - 0,0
12.12.2018 04:00:00 7,8 5,4 - - 0,0
12.12.2018 03:00:00 7,8 5,4 - - 0,0
12.12.2018 02:00:00 7,5 5,8 - - 0,0
12.12.2018 01:00:00 7,5 6,0 - - 0,0
12.12.2018 00:00:00 7,3 5,9 - - 0,0
11.12.2018 23:00:00 7,8 5,5 - - 0,0
11.12.2018 22:00:00 8,0 5,3 - - 0,0
11.12.2018 21:00:00 8,2 5,4 - - 0,0
11.12.2018 20:00:00 8,3 5,3 - - 0,0
11.12.2018 19:00:00 8,5 5,1 - - 0,0
11.12.2018 18:00:00 8,5 5,2 - - 0,0
11.12.2018 17:00:00 8,3 6,1 - - 0,0
11.12.2018 16:00:00 8,2 6,1 - - 0,0
11.12.2018 15:00:00 7,9 6,6 - - 0,0
11.12.2018 14:00:00 7,8 7,0 - - 0,0
11.12.2018 13:00:00 7,6 7,2 - - 0,0
11.12.2018 12:00:00 7,1 6,9 - - 0,0
11.12.2018 11:00:00 6,0 5,8 - - 0,2
11.12.2018 10:00:00 5,7 5,5 - - 0,2
11.12.2018 09:00:00 5,3 5,0 6,0 8,0 0,0
11.12.2018 08:00:00 5,0 4,7 - - 0,0
11.12.2018 07:00:00 5,0 4,8 - - 0,2
11.12.2018 06:00:00 5,1 4,9 - - 0,0
11.12.2018 05:00:00 5,4 5,2 - - 0,0

tt = Température de l'air
td = dewpoint
tt -20cm = Température de l'air -20cm
tt -100cm = Température de l'air -100cm
rr = Quantités de précipitations

stations d'obs. à proximité